Weather History for Nome, AK

Change the Weather History Date:

Friday, October 5, 2012

  Actual Average Record
Temperature  
Mean Temperature 42 °F 34 °F  
Max Temperature 43 °F 40 °F 52 °F (1938)
Min Temperature 40 °F 28 °F 8 °F (1919)
Degree Days  
Heating Degree Days 23 31  
Month to date heating degree days 121 151  
Since 1 July heating degree days 1775 1681  
Cooling Degree Days 0    
Month to date cooling degree days 0  
Year to date cooling degree days 0  
Moisture  
Dew Point 39 °F    
Average Humidity 0    
Maximum Humidity 0    
Minimum Humidity 0    
Precipitation  
Precipitation 0.11 in 0.06 in 1.50 in (1985)
Month to date precipitation 1.08 0.32  
Year to date precipitation 17.83 13.22  
Snow  
Snow 0.00 in 0.10 in 4.60 in (1992)
Month to date snowfall 0.2 0.4  
Since 1 July snowfall 0.5 1.0  
Since 1 September snowfall 0.5 1.0  
Snow Depth 0.00 in    
Sea Level Pressure  
Sea Level Pressure 29.47 in    
Wind  
Wind Speed 23 mph (SSE)    
Max Wind Speed 37 mph    
Max Gust Speed 49 mph    
Visibility 7 miles    
Events Rain    
T = Trace of Precipitation, MM = Missing Value Source: NWS Daily Summary

Daily Weather History Graph

Daily Weather History Graph

Search for Another Location

Airport:

Trip Planner

Search our weather history database for the weather conditions in past years. The results will help you decide how hot, cold, wet, or windy it might be!

Date:

Astronomy

Oct. 05, 2012 Rise Set
Actual Time 9:25 AM AKDT 8:13 PM AKDT
Civil Twilight 8:36 AM AKDT 9:01 PM AKDT
Nautical Twilight 7:40 AM AKDT 9:57 PM AKDT
Astronomical Twilight 6:40 AM AKDT 10:56 PM AKDT
Moon 9:48 PM AKDT (10/5) 4:43 PM AKDT (10/5)
Length of Visible Light 12h 24m
Length of Day
10h 48m
Waning Gibbous, 73% of the Moon is Illuminated
Oct 5
Waning Gibbous
Oct 7
Last Quarter
Oct 15
New
Oct 21
First Quarter
Oct 29
Full

Hourly Weather History & Observations

Time (AKDT) Temp. Windchill Dew Point Humidity Pressure Visibility Wind Dir Wind Speed Gust Speed Precip Events Conditions
12:53 AM 43.0 °F 32.5 °F 37.9 °F 82% 29.50 in 10.0 mi ESE 29.9 mph 38.0 mph N/A   Overcast
1:53 AM 43.0 °F 32.7 °F 37.9 °F 82% 29.49 in 10.0 mi ESE 28.8 mph 38.0 mph N/A   Overcast
2:24 AM 42.8 °F 32.3 °F 37.4 °F 81% 29.48 in 10.0 mi ESE 29.9 mph 43.7 mph 0.00 in Rain Light Rain
2:53 AM 43.0 °F 32.4 °F 37.9 °F 82% 29.48 in 9.0 mi ESE 31.1 mph 41.4 mph 0.00 in Rain Light Rain
3:53 AM 42.1 °F 31.3 °F 39.0 °F 89% 29.46 in 6.0 mi ESE 29.9 mph 43.7 mph 0.00 in Rain Light Rain
4:53 AM 42.1 °F 30.8 °F 39.0 °F 89% 29.44 in 5.0 mi ESE 33.4 mph 44.9 mph 0.00 in Rain Light Rain
5:53 AM 42.1 °F 31.0 °F 39.0 °F 89% 29.42 in 5.0 mi ESE 32.2 mph 47.2 mph 0.02 in Rain Light Rain
6:53 AM 42.1 °F 30.6 °F 39.0 °F 89% 29.40 in 6.0 mi ESE 34.5 mph 42.6 mph 0.00 in Rain Light Rain
7:53 AM 42.1 °F 31.3 °F 39.0 °F 89% 29.38 in 5.0 mi SE 29.9 mph 42.6 mph 0.00 in Rain Light Rain
8:53 AM 41.0 °F 30.0 °F 39.0 °F 93% 29.38 in 5.0 mi SE 28.8 mph 38.0 mph 0.08 in Rain Light Rain
9:14 AM 41.0 °F 30.5 °F 39.2 °F 93% 29.37 in 5.0 mi SE 26.5 mph 41.4 mph 0.00 in Rain Light Rain
9:53 AM 42.1 °F 31.5 °F 39.9 °F 92% 29.38 in 4.0 mi SE 28.8 mph 39.1 mph 0.00 in Rain Light Rain
9:59 AM 41.0 °F 30.2 °F 39.2 °F 93% 29.38 in 2.5 mi SE 27.6 mph 39.1 mph 0.00 in   Overcast
10:04 AM 41.0 °F 30.0 °F 39.2 °F 93% 29.38 in 3.0 mi SE 28.8 mph 36.8 mph 0.00 in Rain Light Rain
10:15 AM 42.8 °F 33.1 °F 39.2 °F 87% 29.39 in 7.0 mi SSE 25.3 mph 34.5 mph N/A Rain Light Rain
10:53 AM 41.0 °F 32.5 °F 39.0 °F 93% 29.41 in 3.0 mi SSE 17.3 mph 28.8 mph 0.00 in   Overcast
11:14 AM 41.0 °F 32.2 °F 39.2 °F 93% 29.42 in 2.5 mi SSE 18.4 mph 28.8 mph N/A   Overcast
11:32 AM 41.0 °F 32.5 °F 39.2 °F 93% 29.42 in 4.0 mi SSE 17.3 mph - 0.01 in Rain Light Rain
11:53 AM 41.0 °F 31.9 °F 39.9 °F 96% 29.43 in 3.0 mi SSE 19.6 mph - 0.01 in   Overcast
12:12 PM 42.8 °F 33.8 °F 39.2 °F 87% 29.44 in 8.0 mi SSE 21.9 mph 29.9 mph 0.00 in   Overcast
12:53 PM 41.0 °F 32.2 °F 39.0 °F 93% 29.45 in 8.0 mi SSE 18.4 mph 27.6 mph 0.00 in   Overcast
1:53 PM 42.1 °F 32.8 °F 39.0 °F 89% 29.48 in 10.0 mi South 21.9 mph 29.9 mph N/A   Overcast
2:53 PM 41.0 °F 31.4 °F 37.9 °F 89% 29.50 in 9.0 mi South 21.9 mph 28.8 mph N/A   Overcast
3:53 PM 41.0 °F 31.6 °F 39.0 °F 93% 29.52 in 10.0 mi SSE 20.7 mph 27.6 mph N/A   Overcast
4:53 PM 41.0 °F 32.2 °F 39.0 °F 93% 29.52 in 7.0 mi South 18.4 mph 31.1 mph 0.00 in Rain Light Rain
5:14 PM 41.0 °F 31.9 °F 37.4 °F 87% 29.52 in 10.0 mi SSE 19.6 mph - N/A   Overcast
5:53 PM 41.0 °F 31.9 °F 37.9 °F 89% 29.53 in 10.0 mi South 19.6 mph 24.2 mph N/A   Overcast
6:53 PM 39.9 °F 30.8 °F 37.9 °F 93% 29.54 in 10.0 mi South 18.4 mph - N/A   Overcast
7:53 PM 39.9 °F 31.8 °F 37.9 °F 93% 29.54 in 10.0 mi South 15.0 mph 21.9 mph N/A   Overcast
8:53 PM 39.9 °F 31.8 °F 37.9 °F 93% 29.56 in 10.0 mi SSE 15.0 mph - N/A   Overcast
9:53 PM 39.9 °F 31.4 °F 37.0 °F 89% 29.56 in 10.0 mi South 16.1 mph - 0.00 in   Overcast
10:14 PM 39.2 °F 31.6 °F 37.4 °F 93% 29.56 in 10.0 mi SSE 12.7 mph - N/A   Overcast
10:53 PM 39.9 °F 32.1 °F 37.0 °F 89% 29.56 in 10.0 mi SSE 13.8 mph - 0.00 in Rain Light Rain
11:46 PM 39.2 °F 31.2 °F 37.4 °F 93% 29.58 in 10.0 mi South 13.8 mph - 0.00 in Rain Light Rain
11:53 PM 39.9 °F 31.8 °F 37.9 °F 93% 29.58 in 10.0 mi South 15.0 mph - 0.00 in Rain Light Rain